星链-31292 (STARLINK-31292 )

导读

STARLINK-31292是美国太空探索技术公司(SpaceX)旗下星链(Starlink)星座的一颗互联网通信卫星,于2024年2月29日发射升空。作为星链星座的组成部分,它运行在近地轨道,主要为全球范围内尤其是网络基础设施匮乏地区提供高速宽带互联网接入服务,进一步扩充了星链星座的服务覆盖能力。

基本信息
目录编号:
59081
目录名称:
STARLINK-31292
国际标识:
2024-041H
轨道中心:
EARTH
卫星名称:
星链-31292
卫星全名:
星链-31292 (STARLINK-31292 )
卫星状态:
在轨 (已飞行925 天)
发射日期:
2024-02-29 UTC
国别 :
美国 (US)
星等 :
--
该卫星已列入 空间交会检测服务 Space Conjunction Data Service (SCDS) ,当前飞行风险评估等级: 无高风险
轨道信息
数据来源 国际轨道数据
星历时间: 2026-09-11T15:34:41+0800
12小时前
查看轨道信息
半长轴: 6861.204km
偏心率: 0.0001804
轨道倾角: 43.007°
近地点辐角 276.326°
升交点赤经 342.133°
平近点角 83.739°
近地点: 481.829km
远地点: 484.305km
周期: 94.267分钟
每日圈数: 15.275742
详细信息
固有亮度:
5
最大亮度:
0.3
卫星平台:
Starlink v2.0 mini
覆盖范围:
全球
运营商:
太空探索技术公司
运营商所在国:
美国
制造商(研发单位):
太空探索技术公司
制造商所在国:
美国
使用方式:
暂无
卫星简介
星链(Starlink)计划是由太空探索技术公司(SpaceX)提出的一个巨型低轨卫星互联网星座项目,计划在2019年至2024年间在太空搭建由约1.2万颗卫星组成的“星链”网络,其中1584颗将部署在地球上空550千米处的近地轨道,并从2020年开始工作。该卫星仍在工作。
2D轨道图
3D轨道图
轨道高度分析图
轨道倾角分析图
轨道综合分析图
查看轨道综合分析图
交会数据列表
事件ID 空间交会对象 最接近时刻(TCA) 交会距离 交会风险概率(CRP) 交会风险指数(CRI) 操作
CDM_260914-073205-908106-799221
2026-09-14T
07:32:52+0000
0.723 km
远距离
5.073948E-5 中风险 0.69
CDM_260914-055805-908106-799221
2026-09-14T
05:58:43+0000
1.930 km
极远距离
2.110284E-6 低风险 0.41
与全量物体交会距离演化趋势
与全量物体交会风险概率演化趋势